Weather History for Clarksville, TN

Change the Weather History Date:

Wednesday, May 29, 2013

  Actual Average Record
Temperature  
Mean Temperature 76 °F -  
Max Temperature 88 °F - 95 °F (1953)
Min Temperature 64 °F - 39 °F (1984)
Degree Days  
Heating Degree Days 0    
Month to date heating degree days 78  
Since 1 July heating degree days 3952  
Cooling Degree Days 11    
Month to date cooling degree days 112  
Growing Degree Days 26 (Base 50)    
Moisture  
Dew Point 63 °F    
Average Humidity 64    
Maximum Humidity 87    
Minimum Humidity 40    
Precipitation  
Precipitation 0.00 in - 1.50 in (1992)
Month to date precipitation 2.63  
Sea Level Pressure  
Sea Level Pressure 30.04 in    
Wind  
Wind Speed 8 mph (South)    
Max Wind Speed 17 mph    
Max Gust Speed 22 mph    
Visibility 10 miles    
Events      
T = Trace of Precipitation, MM = Missing Value Source: NWS Daily Summary

Daily Weather History Graph

Daily Weather History Graph

Search for Another Location

Airport:

Trip Planner

Search our weather history database for the weather conditions in past years. The results will help you decide how hot, cold, wet, or windy it might be!

Date:

Astronomy

May. 29, 2013 Rise Set
Actual Time 5:33 AM CDT 8:00 PM CDT
Civil Twilight 5:03 AM CDT 8:30 PM CDT
Nautical Twilight 4:26 AM CDT 9:07 PM CDT
Astronomical Twilight 3:46 AM CDT 9:48 PM CDT
Moon No Moon Rise 10:28 AM CDT (5/29)
Length of Visible Light 15h 27m
Length of Day
14h 27m
Waning Gibbous, 73% of the Moon is Illuminated
May 29
Waning Gibbous
May 31
Last Quarter
Jun 8
New
Jun 16
First Quarter
Jun 23
Full

Hourly Weather History & Observations

Time (CDT) Temp. Heat Index Dew Point Humidity Pressure Visibility Wind Dir Wind Speed Gust Speed Precip Events Conditions
12:52 AM 68.0 °F - 59.0 °F 73% 30.03 in 10.0 mi Calm Calm - N/A   Clear
1:52 AM 66.0 °F - 60.1 °F 81% 30.02 in 10.0 mi SSE 5.8 mph - N/A   Clear
2:52 AM 66.9 °F - 61.0 °F 81% 30.02 in 10.0 mi South 3.5 mph - N/A   Clear
3:52 AM 64.9 °F - 61.0 °F 87% 30.03 in 10.0 mi SE 5.8 mph - N/A   Clear
4:52 AM 66.0 °F - 61.0 °F 84% 30.04 in 10.0 mi SSE 3.5 mph - N/A   Clear
5:52 AM 66.0 °F - 62.1 °F 87% 30.08 in 10.0 mi SE 3.5 mph - N/A   Overcast
6:52 AM 69.1 °F - 63.0 °F 81% 30.09 in 10.0 mi SE 4.6 mph - N/A   Clear
7:52 AM 73.9 °F - 63.0 °F 68% 30.10 in 10.0 mi South 11.5 mph - N/A   Clear
8:52 AM 77.0 °F - 64.0 °F 64% 30.11 in 10.0 mi SSW 9.2 mph - N/A   Clear
9:52 AM 80.1 °F 81.9 °F 64.9 °F 60% 30.09 in 10.0 mi South 12.7 mph - N/A   Clear
10:52 AM 82.0 °F 83.4 °F 64.0 °F 54% 30.08 in 10.0 mi SW 10.4 mph - N/A   Clear
11:52 AM 84.0 °F 85.8 °F 64.9 °F 53% 30.07 in 10.0 mi SSW 12.7 mph 20.7 mph N/A   Scattered Clouds
12:52 PM 84.0 °F 86.3 °F 66.0 °F 55% 30.06 in 10.0 mi South 11.5 mph 20.7 mph N/A   Scattered Clouds
1:52 PM 84.9 °F 86.1 °F 64.0 °F 49% 30.05 in 10.0 mi South 10.4 mph 19.6 mph N/A   Scattered Clouds
2:52 PM 87.1 °F 87.0 °F 61.0 °F 41% 30.03 in 10.0 mi South 9.2 mph 18.4 mph N/A   Clear
3:52 PM 87.1 °F 87.5 °F 62.1 °F 43% 30.02 in 10.0 mi South 9.2 mph 19.6 mph N/A   Partly Cloudy
4:52 PM 82.9 °F 84.6 °F 64.9 °F 54% 30.01 in 10.0 mi SSE 10.4 mph 17.3 mph N/A   Scattered Clouds
5:52 PM 84.9 °F 86.6 °F 64.9 °F 51% 30.00 in 10.0 mi South 8.1 mph - N/A   Partly Cloudy
6:52 PM 82.9 °F 84.0 °F 63.0 °F 51% 30.00 in 10.0 mi South 9.2 mph - N/A   Clear
7:52 PM 79.0 °F - 64.0 °F 60% 29.99 in 10.0 mi SSE 5.8 mph - N/A   Clear
8:52 PM 78.1 °F - 64.0 °F 62% 29.98 in 10.0 mi SSE 4.6 mph - N/A   Clear
9:52 PM 77.0 °F - 63.0 °F 62% 29.99 in 10.0 mi SSE 6.9 mph - N/A   Clear
10:52 PM 75.9 °F - 63.0 °F 64% 29.99 in 10.0 mi SSE 8.1 mph - N/A   Clear
11:52 PM 75.9 °F - 63.0 °F 64% 30.01 in 10.0 mi South 5.8 mph - N/A   Clear